[[{"header":{"parameterUnit":"m.s-1","parameterCategory":1,"la1":30.2991,"la2":30.254,"lo1":-89.0895,"lo2":-89.0444,"dy":0.0017,"dx":0.0017,"nx":28,"ny":28,"refTime":"2024-04-16T21:00:00:Z","depth":0,"parameterNumber":2,"parameterNumberName":"U-component_of_WINDS"},"data":[0,0,0,0,0,0,0,0,0,0,0,0,0,0,0,0,0,0,0,0,0,0,0,0,0,0,0,0,0,0,0,0,0,0,0,0,0,0,0,0,0,0,0,0,0,0,0,0,0,0,0,0,0,0,0,0,0,0,-2.6422,-2.6423,0,-2.6424,-2.6424,-2.6424,-2.6385,-2.6384,-2.6383,-2.6382,-2.6384,-2.6385,-2.6386,0,0,0,0,0,0,0,0,0,0,0,0,0,-2.6389,-2.639,-2.6422,-2.6423,-2.6423,-2.6424,-2.6424,-2.6424,-2.6386,-2.6384,-2.6383,-2.6382,-2.6384,-2.6385,-2.6386,0,0,0,0,0,0,0,0,0,0,0,0,0,-2.6398,-2.639,-2.6422,-2.6404,-2.6402,-2.6424,-2.6424,-2.6424,-2.6386,-2.6384,-2.6383,-2.6381,-2.6383,-2.6385,-2.6386,-2.6426,0,0,-2.6391,-2.6391,0,0,0,0,0,0,0,0,-2.6398,-2.64,-2.6406,-2.6405,-2.6403,-2.6403,-2.6412,-2.6424,-2.6386,-2.6392,-2.6382,-2.6381,-2.6391,-2.6392,-2.6396,-2.6426,-2.6426,-2.6391,-2.6392,-2.6392,-2.6393,0,0,0,0,0,0,0,-2.6397,-2.6399,-2.6423,-2.6407,-2.6405,-2.6396,-2.6395,-2.6414,-2.64,-2.6391,-2.6389,-2.6389,-2.639,-2.6394,-2.6395,-2.6426,-2.6391,-2.6392,-2.6393,-2.6394,-2.649,-2.6491,0,0,0,0,0,0,-2.6399,-2.6399,-2.6423,-2.6423,-2.6397,-2.6398,-2.6397,-2.6404,-2.64,-2.6398,-2.6391,-2.6387,-2.6393,-2.6394,-2.6395,-2.6441,-2.6392,-2.6394,-2.6395,-2.6488,-2.649,-2.6492,0,0,0,0,0,0,-2.6399,-2.6402,-2.6423,-2.641,-2.6412,-2.64,-2.6408,-2.6405,-2.6409,-2.6399,-2.6397,-2.6397,-2.6391,-2.6393,-2.6419,-2.6441,-2.6394,-2.6396,-2.6486,-2.6489,-2.6491,-2.6534,0,0,0,0,0,0,-2.6398,-2.6402,-2.6416,-2.6411,-2.6413,-2.6446,-2.641,-2.6406,-2.6412,-2.6408,-2.6405,-2.6403,-2.639,-2.6417,-2.642,-2.6442,-2.6397,-2.6484,-2.6487,-2.649,-2.653,-2.6537,-2.6543,0,0,0,0,0,-2.6397,-2.6428,-2.6417,-2.642,-2.6431,-2.6447,-2.6448,-2.6433,-2.6414,-2.6428,-2.6422,-2.6403,-2.6439,-2.642,-2.6423,-2.6446,-2.6483,-2.6486,-2.649,-2.6527,-2.6536,-2.6543,0,0,0,0,0,0,-2.6435,-2.6427,-2.6414,-2.6445,-2.6447,-2.644,-2.6458,-2.6443,-2.645,-2.6446,-2.6427,-2.6427,-2.6456,-2.6454,-2.6433,-2.6485,-2.6457,-2.6462,-2.6484,-2.6492,-2.6499,-2.6498,-2.6398,0,0,0,0,0,-2.6447,-2.6461,-2.6453,-2.6481,-2.6482,-2.647,-2.6477,-2.6465,-2.6467,-2.6467,-2.6463,-2.6465,-2.6477,-2.6485,-2.6495,-2.6531,-2.653,-2.6548,-2.6555,-2.6561,-2.6564,-2.6583,-2.6591,-2.6504,-2.6504,-2.6504,0,0,-2.6472,-2.6469,-2.6479,-2.6488,-2.6488,-2.6503,-2.6471,-2.6488,-2.6499,-2.647,-2.6493,-2.6491,-2.6492,-2.6523,-2.6536,-2.6522,-2.6588,-2.6565,-2.657,-2.657,-2.6588,-2.6596,-2.6603,-2.6507,-2.6506,-2.6506,0,0,-2.6524,-2.6524,-2.6547,-2.6548,-2.655,-2.6542,-2.6548,-2.6544,-2.6541,-2.6565,-2.6543,-2.6557,-2.6577,-2.6579,-2.6583,-2.664,-2.6622,-2.6644,-2.6677,-2.6696,-2.6703,-2.6709,-2.6728,-2.6735,-2.6648,-2.6648,-2.6648,0,-2.6555,-2.6576,-2.6561,-2.6579,-2.6584,-2.656,-2.6583,-2.6585,-2.659,-2.6594,-2.6579,-2.6605,-2.6604,-2.6635,-2.6649,-2.6653,-2.6659,-2.6642,-2.6703,-2.6709,-2.6714,-2.6732,-2.6739,-2.665,-2.665,-2.665,-2.665,0,-2.6613,-2.6628,-2.6647,-2.6652,-2.666,-2.668,-2.6669,-2.6679,-2.6668,-2.6662,-2.6687,-2.6686,-2.6695,-2.6703,-2.6691,-2.6732,-2.6723,-2.6706,-2.6678,-2.6725,-2.6742,-2.6748,-2.6654,-2.6653,-2.6652,-2.6652,0,0,-2.6686,-2.6685,-2.6692,-2.6694,-2.6695,-2.6707,-2.6728,-2.6737,-2.6746,-2.6751,-2.6767,-2.6787,-2.6771,-2.6775,-2.6765,-2.6782,-2.6826,-2.6762,-2.6762,-2.6773,-2.687,-2.6881,-2.689,-2.6815,-2.6817,-2.6818,-2.6869,0,-2.6736,-2.677,-2.6758,-2.6793,-2.6807,-2.6786,-2.6804,-2.6807,-2.6803,-2.6815,-2.6811,-2.6824,-2.6803,-2.6806,-2.6821,-2.6817,-2.6845,-2.6813,-2.683,-2.6831,-2.6828,-2.6898,-2.691,-2.6959,-2.6876,-2.6877,-2.6878,0,-2.6798,-2.6806,-2.6842,-2.6841,-2.6847,-2.6863,-2.6872,-2.6884,-2.6887,-2.6883,-2.689,-2.6876,-2.6897,-2.6871,-2.6899,-2.6879,-2.6885,-2.6885,-2.6886,-2.6885,-2.6855,-2.6898,-2.6974,-2.6981,-2.6888,-2.6887,-2.6887,0,-2.6846,-2.6866,-2.689,-2.6893,-2.6894,-2.6906,-2.6907,-2.6909,-2.6916,-2.6924,-2.6929,-2.6939,-2.6945,-2.6954,-2.6944,-2.6926,-2.6974,-2.6947,-2.6971,-2.6971,-2.6979,-2.6979,-2.7056,-2.6988,-2.6987,-2.6987,-2.6987,0,-2.6902,-2.6924,-2.6912,-2.6927,-2.6952,-2.694,-2.6965,-2.6964,-2.6966,-2.6981,-2.6964,-2.6978,-2.6966,-2.6979,-2.6972,-2.6996,-2.6999,-2.6997,-2.6994,-2.6997,-2.6997,-2.6999,-2.6994,-2.6989,-2.6989,-2.6988,-2.6988,0,-2.6958,-2.6951,-2.6976,-2.6975,-2.6976,-2.6994,-2.6994,-2.7008,-2.7004,-2.7023,-2.7026,-2.702,-2.7035,-2.7027,-2.7042,-2.7038,-2.7069,-2.7063,-2.7067,-2.7065,-2.7088,-2.7086,-2.7168,-2.7178,-2.7105,-2.7106,-2.7106,0,-2.6993,-2.701,-2.7011,-2.702,-2.7022,-2.7036,-2.7044,-2.7033,-2.7042,-2.7048,-2.7061,-2.7075,-2.7085,-2.711,-2.7107,-2.7119,-2.7112,-2.714,-2.7113,-2.7116,-2.711,-2.7109,-2.711,-2.7145,-2.7145,-2.7146,-2.7147,0,-2.7055,-2.7051,-2.7062,-2.7073,-2.7082,-2.709,-2.7097,-2.7105,-2.7095,-2.7106,-2.7121,-2.7129,-2.7145,-2.7158,-2.7169,-2.7171,-2.7157,-2.7156,-2.7162,-2.7163,-2.7165,-2.7163,-2.708,-2.7153,-2.7152,-2.7152,-2.7152,-2.7151,-2.71,-2.7115,-2.7118,-2.7132,-2.7136,-2.7143,-2.7156,-2.7154,-2.7167,-2.7179,-2.7173,-2.719,-2.7195,-2.7208,-2.7212,-2.7226,-2.7214,-2.7223,-2.7225,-2.7227,-2.7229,-2.7165,-2.7228,-2.7228,-2.7227,-2.7227,-2.7227,0,-2.716,-2.7162,-2.7175,-2.7184,-2.7196,-2.7183,-2.719,-2.72,-2.7216,-2.7222,-2.7232,-2.725,-2.7264,-2.7263,-2.7276,-2.7287,-2.7282,-2.7291,-2.7289,-2.7289,-2.7239,-2.7232,-2.7296,-2.7295,-2.7295,-2.7295,-2.7295,-2.7295,-2.7192,-2.7216,-2.7213,-2.7239,-2.724,-2.7258,-2.7263,-2.7269,-2.7274,-2.7295,-2.7306,-2.7306,-2.7309,-2.7322,-2.7334,-2.7334,-2.7339,-2.735,-2.7347,-2.73,-2.7293,-2.7286,-2.7279,-2.7352,-2.7352,-2.7396,-2.7396,-2.7396]},{"header":{"parameterUnit":"m.s-1","parameterCategory":1,"la1":30.2991,"la2":30.254,"lo1":-89.0895,"lo2":-89.0444,"dy":0.0017,"dx":0.0017,"nx":28,"ny":28,"refTime":"2024-04-16T21:00:00:Z","depth":0,"parameterNumber":3,"parameterNumberName":"V-component_of_WINDS"},"data":[0,0,0,0,0,0,0,0,0,0,0,0,0,0,0,0,0,0,0,0,0,0,0,0,0,0,0,0,0,0,0,0,0,0,0,0,0,0,0,0,0,0,0,0,0,0,0,0,0,0,0,0,0,0,0,0,0,0,2.356,2.356,0,2.3534,2.3534,2.3534,2.3559,2.356,2.3561,2.3562,2.3536,2.3534,2.3532,0,0,0,0,0,0,0,0,0,0,0,0,0,2.3634,2.3633,2.356,2.356,2.356,2.3534,2.3534,2.3534,2.3559,2.356,2.3562,2.3563,2.3536,2.3534,2.3532,0,0,0,0,0,0,0,0,0,0,0,0,0,2.3605,2.3632,2.356,2.3569,2.357,2.3534,2.3534,2.3533,2.3559,2.356,2.3562,2.3563,2.3537,2.3534,2.3532,2.3486,0,0,2.3524,2.3523,0,0,0,0,0,0,0,0,2.3606,2.3602,2.3568,2.3569,2.3569,2.3552,2.355,2.3518,2.3558,2.3563,2.3562,2.3564,2.354,2.3537,2.3529,2.3485,2.3484,2.3524,2.3523,2.3521,2.3521,0,0,0,0,0,0,0,2.3608,2.3603,2.355,2.3568,2.3568,2.3575,2.3573,2.3544,2.3543,2.3563,2.3564,2.3561,2.354,2.3531,2.3528,2.3483,2.3524,2.3522,2.352,2.3519,2.3405,2.3404,0,0,0,0,0,0,2.3609,2.3605,2.3551,2.3549,2.3592,2.3573,2.357,2.3556,2.3543,2.3543,2.356,2.3562,2.3535,2.3531,2.3528,2.3476,2.3522,2.3519,2.3518,2.3407,2.3405,2.3403,0,0,0,0,0,0,2.3611,2.3604,2.3552,2.3577,2.3571,2.357,2.3554,2.3554,2.3545,2.3541,2.3541,2.3551,2.3536,2.3531,2.3497,2.3475,2.3518,2.3516,2.3409,2.3406,2.3404,2.3371,0,0,0,0,0,0,2.3613,2.3604,2.3586,2.3577,2.357,2.3521,2.3552,2.3553,2.3541,2.3544,2.3533,2.3532,2.3536,2.3501,2.3495,2.3473,2.3514,2.3411,2.3408,2.3405,2.3374,2.3367,2.3362,0,0,0,0,0,2.3615,2.3577,2.3585,2.3578,2.3547,2.3519,2.3516,2.3521,2.3539,2.3521,2.352,2.3533,2.3479,2.3497,2.3491,2.3467,2.3412,2.3409,2.3405,2.3376,2.3369,2.3362,0,0,0,0,0,0,2.3582,2.3575,2.3585,2.3542,2.3531,2.3524,2.3501,2.3512,2.3496,2.35,2.3508,2.3505,2.347,2.3465,2.3486,2.3425,2.3448,2.3444,2.3429,2.3422,2.3416,2.3418,2.3512,0,0,0,0,0,2.357,2.3548,2.3544,2.3506,2.3501,2.3502,2.349,2.3496,2.3485,2.3481,2.3476,2.3466,2.3447,2.3434,2.3416,2.3374,2.3373,2.3355,2.3349,2.3344,2.334,2.3321,2.3313,2.3392,2.3392,2.3392,0,0,2.3544,2.3538,2.3523,2.35,2.3492,2.3471,2.3498,2.3473,2.3457,2.3477,2.3445,2.3442,2.3431,2.3394,2.3377,2.3389,2.3318,2.334,2.3336,2.3334,2.3316,2.3309,2.3302,2.339,2.339,2.339,0,0,2.3487,2.3479,2.3449,2.3442,2.3431,2.3432,2.3425,2.3417,2.3416,2.3385,2.34,2.3382,2.3349,2.3341,2.3333,2.3278,2.329,2.3272,2.3241,2.3222,2.3216,2.3211,2.3193,2.3187,2.3267,2.3267,2.3267,0,2.3456,2.3423,2.3432,2.3407,2.3397,2.3416,2.3386,2.3379,2.3362,2.3356,2.3369,2.333,2.3324,2.3286,2.3274,2.3265,2.3259,2.3273,2.3216,2.3211,2.3206,2.319,2.3183,2.3265,2.3265,2.3266,2.3266,0,2.3388,2.3365,2.3343,2.3328,2.3316,2.3288,2.3294,2.3281,2.3289,2.329,2.326,2.3253,2.3236,2.3228,2.3234,2.3193,2.3201,2.3215,2.3239,2.3196,2.3181,2.3175,2.3262,2.3263,2.3264,2.3264,0,0,2.3306,2.3299,2.3291,2.3286,2.3277,2.326,2.3236,2.322,2.321,2.3199,2.3179,2.3152,2.3167,2.3158,2.3164,2.3147,2.3108,2.3165,2.3165,2.3156,2.3064,2.3054,2.3047,2.3116,2.3115,2.3114,2.3066,0,2.325,2.3207,2.3215,2.3174,2.3155,2.3174,2.3153,2.3146,2.3148,2.3133,2.3134,2.3116,2.3135,2.313,2.3115,2.3116,2.3089,2.3119,2.3099,2.3099,2.3102,2.3038,2.3026,2.2981,2.306,2.3059,2.3058,0,2.3177,2.3166,2.3123,2.3121,2.3114,2.3094,2.3083,2.3067,2.3061,2.3064,2.3055,2.3066,2.3044,2.3068,2.3039,2.3059,2.3052,2.3051,2.305,2.3049,2.3076,2.3037,2.2967,2.2961,2.3048,2.3049,2.305,0,2.3125,2.3098,2.307,2.3065,2.3062,2.3048,2.3046,2.3042,2.3033,2.3023,2.3018,2.3005,2.2998,2.2989,2.2997,2.3013,2.2967,2.2991,2.2969,2.2969,2.2958,2.2959,2.2888,2.2952,2.2952,2.2952,2.2952,0,2.3061,2.3035,2.3047,2.303,2.3002,2.3013,2.2985,2.2985,2.2982,2.2966,2.2982,2.2967,2.2978,2.2964,2.2971,2.2947,2.2943,2.2946,2.2948,2.2945,2.2944,2.294,2.2944,2.295,2.2951,2.2951,2.2951,0,2.2997,2.3004,2.2975,2.2976,2.2975,2.2955,2.2955,2.294,2.2944,2.2924,2.292,2.2926,2.2912,2.2919,2.2903,2.2908,2.2877,2.2883,2.288,2.2882,2.286,2.2862,2.2784,2.2776,2.2844,2.2843,2.2843,0,2.2957,2.2937,2.2936,2.2928,2.2925,2.291,2.2902,2.2914,2.2905,2.2899,2.2885,2.2872,2.2862,2.2839,2.2842,2.2831,2.2837,2.2811,2.2836,2.2835,2.2839,2.2841,2.284,2.2806,2.2805,2.2804,2.2804,0,2.2885,2.289,2.2878,2.2869,2.2859,2.2852,2.2846,2.2838,2.285,2.2839,2.2825,2.2818,2.2804,2.2791,2.2783,2.2782,2.2795,2.2796,2.2791,2.2788,2.2788,2.279,2.2867,2.2798,2.2798,2.2799,2.2799,2.2799,2.2832,2.2817,2.2816,2.2803,2.28,2.2795,2.2782,2.2786,2.2775,2.2764,2.2772,2.2756,2.2754,2.2744,2.2742,2.2731,2.2742,2.2733,2.2731,2.2729,2.2728,2.2789,2.2729,2.2729,2.273,2.273,2.273,0,2.2763,2.2764,2.2752,2.2745,2.2735,2.275,2.2746,2.2737,2.2723,2.272,2.2711,2.2697,2.2686,2.269,2.2681,2.2672,2.2678,2.2669,2.267,2.2671,2.2717,2.2724,2.2665,2.2665,2.2665,2.2665,2.2665,2.2665,2.2726,2.2702,2.2708,2.2685,2.2686,2.2671,2.2668,2.2664,2.2663,2.2646,2.2638,2.2641,2.2642,2.2634,2.2625,2.2627,2.2624,2.2613,2.2617,2.266,2.2667,2.2673,2.2679,2.2612,2.2612,2.2571,2.2571,2.2571]}]]